Вернуться в каталог

YZ-1 R/B

АктивенHEO
NORAD 41929·ROCKET BODY·🇨🇳 China

Запущен Mar 30, 2015 с Xichang Satellite Launch Center

Loading…

Ближайшие Пролёты (ближайшие 24 часа)

TLE

СвежийSource: Space-Track

Эпоха: Sep 17, 2026, 02:35 UTC

1 41929U 15019C   26260.10783736 -.00000615  00000-0  00000-0 0  9995
2 41929  17.2225  81.4640 7012978 320.4724 358.4276  0.27923502 11024

Отслеживайте YZ-1 R/B в реальном времени с AllMySat

Download on the App Store